WZZ3NE LRTM-LHBP

Flight info

Callsign WZZ3NE
Flight time 0h 41m
Altitude 32000
Route DOKUD DCT IXUBA DCT ELROM DCT DEGET DCT KEZAL
Aircraft A21N/M-SDE1E2E3FGIJ1J4RWXY/LB1

Departure

Time 2026-05-06 17:05
Airport Târgu Mureş Transilvania International Airport (LRTM)

Arrival

Time 2026-05-06 17:47
Airport Budapest Liszt Ferenc International Airport (LHBP)
Time Latitude Longitude Altitude Speed Heading
2026-05-06 16:38 46.46800 24.42368 988 ft 0 kts 271°
2026-05-06 17:01 46.46801 24.42358 977 ft 2 kts 287°
2026-05-06 17:01 46.46819 24.42346 980 ft 4 kts 354°
2026-05-06 17:01 46.46845 24.42368 977 ft 6 kts 57°
2026-05-06 17:01 46.46860 24.42429 977 ft 7 kts 75°
2026-05-06 17:02 46.46873 24.42500 985 ft 5 kts 75°
2026-05-06 17:02 46.46886 24.42524 978 ft 0 kts 11°
2026-05-06 17:03 46.46887 24.42524 978 ft 0 kts 11°
2026-05-06 17:03 46.46889 24.42525 986 ft 1 kts 11°
2026-05-06 17:03 46.46904 24.42526 978 ft 3 kts 351°
2026-05-06 17:03 46.46931 24.42517 978 ft 5 kts 346°
2026-05-06 17:04 46.46971 24.42503 987 ft 7 kts 345°
2026-05-06 17:04 46.47011 24.42477 986 ft 5 kts 292°
2026-05-06 17:04 46.47011 24.42450 979 ft 0 kts 253°
2026-05-06 17:04 46.46988 24.42338 985 ft 45 kts 254°
2026-05-06 17:05 46.46827 24.41505 980 ft 126 kts 254°
2026-05-06 17:05 46.46531 24.39997 1115 ft 171 kts 254°
2026-05-06 17:05 46.46203 24.38330 1850 ft 174 kts 254°
2026-05-06 17:05 46.45870 24.36647 2609 ft 173 kts 254°
2026-05-06 17:06 46.45541 24.34979 3327 ft 171 kts 253°
2026-05-06 17:06 46.45252 24.33313 4001 ft 172 kts 265°
2026-05-06 17:06 46.45482 24.31512 4398 ft 195 kts 289°
2026-05-06 17:06 46.46181 24.29721 4799 ft 214 kts 302°
2026-05-06 17:07 46.47048 24.27873 5338 ft 229 kts 302°
2026-05-06 17:07 46.47983 24.25848 5698 ft 253 kts 302°
2026-05-06 17:07 46.48658 24.24370 5992 ft 267 kts 302°
2026-05-06 17:07 46.49693 24.22097 6583 ft 278 kts 302°
2026-05-06 17:08 46.50764 24.19738 7354 ft 283 kts 302°
2026-05-06 17:08 46.51855 24.17330 8141 ft 286 kts 303°
2026-05-06 17:08 46.52954 24.14907 8903 ft 289 kts 303°
2026-05-06 17:08 46.54067 24.12452 9635 ft 292 kts 303°
2026-05-06 17:09 46.55192 24.09967 10287 ft 300 kts 303°
2026-05-06 17:09 46.56370 24.07359 10676 ft 316 kts 303°
2026-05-06 17:09 46.57605 24.04621 11095 ft 330 kts 303°
2026-05-06 17:09 46.58872 24.01810 11740 ft 335 kts 303°
2026-05-06 17:10 46.60130 23.98943 12458 ft 338 kts 300°
2026-05-06 17:10 46.61043 23.95789 13138 ft 341 kts 284°
2026-05-06 17:10 46.61575 23.92417 13843 ft 343 kts 281°
2026-05-06 17:10 46.62050 23.89000 14536 ft 346 kts 281°
2026-05-06 17:11 46.62530 23.85559 15203 ft 349 kts 281°
2026-05-06 17:11 46.63022 23.82091 15860 ft 351 kts 281°
2026-05-06 17:11 46.63520 23.78605 16498 ft 354 kts 281°
2026-05-06 17:11 46.64026 23.75074 17131 ft 357 kts 281°
2026-05-06 17:12 46.64535 23.71524 17733 ft 360 kts 281°
2026-05-06 17:12 46.65048 23.67944 18327 ft 363 kts 281°
2026-05-06 17:12 46.65564 23.64334 18901 ft 366 kts 281°
2026-05-06 17:12 46.66081 23.60695 19458 ft 368 kts 281°
2026-05-06 17:13 46.66603 23.57030 19998 ft 371 kts 281°
2026-05-06 17:13 46.67129 23.53338 20528 ft 374 kts 281°
2026-05-06 17:13 46.67657 23.49619 21031 ft 377 kts 281°
2026-05-06 17:13 46.68188 23.45870 21525 ft 380 kts 281°
2026-05-06 17:14 46.68741 23.42090 22008 ft 382 kts 283°
2026-05-06 17:14 46.69399 23.38326 22471 ft 385 kts 284°
2026-05-06 17:14 46.69953 23.34504 22958 ft 387 kts 280°
2026-05-06 17:14 46.70422 23.30635 23412 ft 389 kts 280°
2026-05-06 17:15 46.70912 23.26751 23845 ft 392 kts 281°
2026-05-06 17:15 46.71430 23.22841 24268 ft 394 kts 281°
2026-05-06 17:15 46.71965 23.18914 24687 ft 396 kts 281°
2026-05-06 17:15 46.72511 23.14957 25103 ft 398 kts 281°
2026-05-06 17:16 46.73057 23.11000 25519 ft 400 kts 281°
2026-05-06 17:16 46.73601 23.07010 25935 ft 401 kts 280°
2026-05-06 17:17 46.71945 22.86539 27808 ft 409 kts 259°
2026-05-06 17:17 46.71384 22.82429 28138 ft 411 kts 260°
2026-05-06 17:18 46.70829 22.78336 28456 ft 412 kts 260°
2026-05-06 17:18 46.70273 22.74234 28771 ft 414 kts 260°
2026-05-06 17:18 46.69714 22.70112 29093 ft 415 kts 260°
2026-05-06 17:18 46.69388 22.65956 29384 ft 414 kts 271°
2026-05-06 17:19 46.69744 22.61801 29683 ft 414 kts 284°
2026-05-06 17:19 46.70525 22.57757 29964 ft 416 kts 287°
2026-05-06 17:19 46.71371 22.53723 30239 ft 416 kts 287°
2026-05-06 17:19 46.72211 22.49683 30558 ft 416 kts 287°
2026-05-06 17:20 46.73036 22.45644 30859 ft 415 kts 286°
2026-05-06 17:20 46.73849 22.41616 31122 ft 413 kts 286°
2026-05-06 17:20 46.74655 22.37595 31375 ft 412 kts 286°
2026-05-06 17:20 46.75455 22.33591 31623 ft 411 kts 286°
2026-05-06 17:21 46.76253 22.29592 31867 ft 410 kts 286°
2026-05-06 17:21 46.77835 22.21639 31933 ft 408 kts 286°
2026-05-06 17:22 46.79411 22.13687 31915 ft 408 kts 286°
2026-05-06 17:22 46.80979 22.05741 31912 ft 407 kts 286°
2026-05-06 17:23 46.82540 21.97791 31917 ft 407 kts 285°
2026-05-06 17:23 46.84092 21.89868 31911 ft 405 kts 285°
2026-05-06 17:24 46.85635 21.81955 31911 ft 405 kts 285°
2026-05-06 17:24 46.87169 21.74052 31912 ft 405 kts 285°
2026-05-06 17:25 46.88750 21.66157 31907 ft 404 kts 285°
2026-05-06 17:25 46.90307 21.58253 31908 ft 405 kts 285°
2026-05-06 17:26 46.91825 21.50337 31902 ft 405 kts 285°
2026-05-06 17:26 46.93342 21.42421 31869 ft 398 kts 285°
2026-05-06 17:26 46.94062 21.38596 31707 ft 383 kts 284°
2026-05-06 17:27 46.94765 21.34890 31332 ft 374 kts 285°
2026-05-06 17:27 46.95455 21.31254 30791 ft 370 kts 284°
2026-05-06 17:27 46.96142 21.27642 30199 ft 367 kts 284°
2026-05-06 17:27 46.96824 21.24050 29597 ft 365 kts 284°
2026-05-06 17:28 46.97500 21.20481 28990 ft 363 kts 284°
2026-05-06 17:28 46.98169 21.16935 28394 ft 361 kts 284°
2026-05-06 17:28 46.98832 21.13392 27797 ft 359 kts 284°
2026-05-06 17:28 46.99482 21.09923 27231 ft 358 kts 284°
2026-05-06 17:29 47.00130 21.06414 26650 ft 355 kts 284°
2026-05-06 17:29 47.00775 21.02930 26063 ft 354 kts 284°
2026-05-06 17:29 47.01427 20.99462 25481 ft 352 kts 284°
2026-05-06 17:29 47.02067 20.95999 24899 ft 351 kts 284°
2026-05-06 17:30 47.02709 20.92557 24320 ft 350 kts 284°
2026-05-06 17:30 47.03351 20.89130 23760 ft 348 kts 284°
2026-05-06 17:30 47.03987 20.85712 23207 ft 347 kts 283°
2026-05-06 17:30 47.04616 20.82315 22677 ft 344 kts 283°
2026-05-06 17:31 47.05239 20.78941 22149 ft 342 kts 283°
2026-05-06 17:31 47.05856 20.75596 21630 ft 339 kts 283°
2026-05-06 17:31 47.06468 20.72266 21112 ft 336 kts 283°
2026-05-06 17:31 47.07072 20.68966 20606 ft 334 kts 283°
2026-05-06 17:32 47.07667 20.65699 20105 ft 331 kts 283°
2026-05-06 17:32 47.08260 20.62451 19618 ft 328 kts 283°
2026-05-06 17:32 47.08847 20.59236 19115 ft 325 kts 283°
2026-05-06 17:32 47.09426 20.56052 18607 ft 322 kts 283°
2026-05-06 17:33 47.10003 20.52878 18098 ft 319 kts 283°
2026-05-06 17:33 47.10571 20.49739 17588 ft 317 kts 283°
2026-05-06 17:33 47.11136 20.46624 17083 ft 315 kts 282°
2026-05-06 17:33 47.11695 20.43528 16576 ft 313 kts 282°
2026-05-06 17:34 47.12251 20.40450 16068 ft 311 kts 282°
2026-05-06 17:34 47.12803 20.37396 15565 ft 309 kts 282°
2026-05-06 17:34 47.13351 20.34354 15071 ft 307 kts 282°
2026-05-06 17:34 47.13895 20.31330 14577 ft 305 kts 282°
2026-05-06 17:35 47.14431 20.28333 14084 ft 303 kts 282°
2026-05-06 17:35 47.14965 20.25356 13606 ft 301 kts 282°
2026-05-06 17:35 47.15494 20.22400 13121 ft 298 kts 282°
2026-05-06 17:36 47.16624 20.16560 12144 ft 295 kts 283°
2026-05-06 17:36 47.17199 20.13672 11656 ft 294 kts 283°
2026-05-06 17:36 47.17740 20.10939 11214 ft 292 kts 283°
2026-05-06 17:36 47.18300 20.08092 10775 ft 289 kts 283°
2026-05-06 17:37 47.18851 20.05278 10324 ft 286 kts 283°
2026-05-06 17:37 47.19404 20.02464 9857 ft 284 kts 283°
2026-05-06 17:37 47.19946 19.99682 9396 ft 283 kts 283°
2026-05-06 17:37 47.20486 19.96905 8938 ft 281 kts 283°
2026-05-06 17:38 47.21021 19.94149 8500 ft 279 kts 283°
2026-05-06 17:38 47.21551 19.91419 8045 ft 277 kts 283°
2026-05-06 17:38 47.22077 19.88705 7591 ft 275 kts 283°
2026-05-06 17:38 47.22598 19.86006 7130 ft 273 kts 282°
2026-05-06 17:39 47.23106 19.83375 6688 ft 272 kts 282°
2026-05-06 17:39 47.23626 19.80679 6247 ft 270 kts 283°
2026-05-06 17:39 47.24135 19.78031 5809 ft 268 kts 282°
2026-05-06 17:39 47.24639 19.75401 5360 ft 267 kts 282°
2026-05-06 17:40 47.25141 19.72779 4905 ft 266 kts 282°
2026-05-06 17:40 47.25643 19.70157 4551 ft 266 kts 282°
2026-05-06 17:40 47.26145 19.67538 4341 ft 266 kts 282°
2026-05-06 17:40 47.26646 19.64919 4194 ft 266 kts 282°
2026-05-06 17:41 47.27137 19.62291 4060 ft 266 kts 281°
2026-05-06 17:41 47.27625 19.59670 3934 ft 265 kts 282°
2026-05-06 17:41 47.28123 19.57092 3803 ft 257 kts 282°
2026-05-06 17:41 47.28598 19.54621 3659 ft 244 kts 282°
2026-05-06 17:42 47.29083 19.52231 3519 ft 245 kts 286°
2026-05-06 17:42 47.29814 19.49944 3375 ft 248 kts 297°
2026-05-06 17:42 47.30811 19.47879 3246 ft 243 kts 306°
2026-05-06 17:42 47.31554 19.46674 3151 ft 235 kts 312°
2026-05-06 17:43 47.32627 19.44975 3014 ft 217 kts 309°
2026-05-06 17:43 47.33601 19.43417 2927 ft 200 kts 308°
2026-05-06 17:43 47.34516 19.41946 2720 ft 190 kts 308°
2026-05-06 17:43 47.35318 19.40656 2486 ft 182 kts 308°
2026-05-06 17:44 47.35978 19.39594 2298 ft 176 kts 308°
2026-05-06 17:44 47.36787 19.38292 2057 ft 166 kts 308°
2026-05-06 17:44 47.37528 19.37099 1877 ft 147 kts 308°
2026-05-06 17:44 47.38200 19.36012 1682 ft 143 kts 309°
2026-05-06 17:45 47.38881 19.34915 1481 ft 145 kts 309°
2026-05-06 17:45 47.39559 19.33819 1300 ft 145 kts 308°
2026-05-06 17:45 47.40233 19.32719 1096 ft 144 kts 309°
2026-05-06 17:45 47.40903 19.31626 894 ft 144 kts 310°
2026-05-06 17:46 47.41581 19.30540 699 ft 144 kts 310°
2026-05-06 17:46 47.42253 19.29455 519 ft 143 kts 310°
2026-05-06 17:46 47.42885 19.28425 459 ft 114 kts 311°
2026-05-06 17:46 47.43291 19.27781 467 ft 63 kts 311°
2026-05-06 17:47 47.43540 19.27377 477 ft 49 kts 311°
2026-05-06 17:47 47.43730 19.26986 473 ft 42 kts 288°
2026-05-06 17:47 47.43777 19.26686 466 ft 20 kts 282°
2026-05-06 17:47 47.43799 19.26537 464 ft 12 kts 282°
2026-05-06 17:48 47.43785 19.26462 463 ft 7 kts 223°
2026-05-06 17:48 47.43745 19.26407 463 ft 9 kts 223°
2026-05-06 17:48 47.43695 19.26346 463 ft 6 kts 200°
2026-05-06 17:48 47.43656 19.26365 463 ft 7 kts 149°
2026-05-06 17:49 47.43625 19.26411 463 ft 7 kts 130°
2026-05-06 17:49 47.43587 19.26476 463 ft 9 kts 131°
2026-05-06 17:49 47.43553 19.26532 463 ft 1 kts 139°
2026-05-06 17:49 47.43543 19.26529 461 ft 2 kts 213°
2026-05-06 17:50 47.43528 19.26502 461 ft 4 kts 229°
2026-05-06 17:50 47.43513 19.26481 463 ft 3 kts 223°
2026-05-06 17:50 47.43511 19.26478 463 ft 0 kts 223°